Weather History for Chadron, NE

Change the Weather History Date:

Tuesday, December 6, 2011

  Actual Average Record
Temperature  
Mean Temperature 17 °F 25 °F  
Max Temperature 39 °F 39 °F 74 °F (1939)
Min Temperature -6 °F 12 °F -23 °F (2013)
Degree Days  
Heating Degree Days 48 40  
Month to date heating degree days 278 233  
Since 1 July heating degree days 1754 1917  
Cooling Degree Days 0 0  
Month to date cooling degree days 0 0  
Year to date cooling degree days 902 712  
Moisture  
Dew Point 6 °F    
Average Humidity 59    
Maximum Humidity 82    
Minimum Humidity 35    
Precipitation  
Precipitation 0.00 in 0.02 in 0.33 in (1995)
Month to date precipitation T 0.10  
Year to date precipitation 17.55 17.63  
Sea Level Pressure  
Sea Level Pressure 30.25 in    
Wind  
Wind Speed 8 mph (WSW)    
Max Wind Speed 22 mph    
Max Gust Speed 29 mph    
Visibility 10 miles    
Events      
T = Trace of Precipitation, MM = Missing Value Source: NWS Daily Summary

Daily Weather History Graph

Daily Weather History Graph

Search for Another Location

Airport:

Trip Planner

Search our weather history database for the weather conditions in past years. The results will help you decide how hot, cold, wet, or windy it might be!

Date:

Astronomy

Dec. 06, 2011 Rise Set
Actual Time 7:08 AM MST 4:18 PM MST
Civil Twilight 6:36 AM MST 4:50 PM MST
Nautical Twilight 6:00 AM MST 5:25 PM MST
Astronomical Twilight 5:26 AM MST 5:59 PM MST
Moon 1:49 PM MST (12/6) 3:25 AM MST (12/6)
Length of Visible Light 10h 13m
Length of Day
9h 09m
Waxing Gibbous, 87% of the Moon is Illuminated
Dec 6
Waxing Gibbous
Dec 10
Full
Dec 17
Last Quarter
Dec 24
New
Dec 31
First Quarter

Hourly Weather History & Observations

Time (MST) Temp. Windchill Dew Point Humidity Pressure Visibility Wind Dir Wind Speed Gust Speed Precip Events Conditions
12:53 AM -0.0 °F -11.6 °F -6.0 °F 76% 30.43 in 10.0 mi SSW 5.8 mph - N/A   Clear
1:53 AM -0.9 °F -8.9 °F -7.1 °F 75% 30.41 in 10.0 mi WSW 3.5 mph - N/A   Clear
2:53 AM -6.0 °F - -11.0 °F 79% 30.40 in 10.0 mi Calm Calm - N/A   Clear
3:53 AM -5.1 °F - -9.0 °F 83% 30.39 in 9.0 mi Calm Calm - N/A   Clear
4:53 AM -2.9 °F -15.0 °F -8.0 °F 79% 30.38 in 9.0 mi WSW 5.8 mph - N/A   Clear
5:53 AM -0.9 °F - -7.1 °F 75% 30.38 in 10.0 mi Calm Calm - N/A   Clear
6:53 AM -2.9 °F -16.5 °F -9.0 °F 75% 30.37 in 10.0 mi WSW 6.9 mph - N/A   Clear
7:53 AM 1.0 °F -10.3 °F -5.1 °F 75% 30.34 in 10.0 mi WSW 5.8 mph - N/A   Clear
8:53 AM 10.0 °F -0.9 °F 3.0 °F 73% 30.30 in 10.0 mi WSW 6.9 mph - N/A   Clear
9:53 AM 21.0 °F 11.4 °F 3.9 °F 48% 30.27 in 10.0 mi WSW 8.1 mph - N/A   Clear
10:53 AM 27.0 °F 15.2 °F 6.1 °F 41% 30.22 in 10.0 mi West 15.0 mph - N/A   Clear
11:53 AM 30.0 °F 20.0 °F 9.0 °F 41% 30.17 in 10.0 mi West 12.7 mph - N/A   Clear
12:53 PM 34.0 °F 25.0 °F 12.0 °F 40% 30.14 in 10.0 mi WNW 12.7 mph - N/A   Clear
1:53 PM 37.0 °F 28.9 °F 12.0 °F 36% 30.12 in 10.0 mi WNW 12.7 mph - N/A   Clear
2:53 PM 37.9 °F 29.6 °F 14.0 °F 38% 30.12 in 10.0 mi West 13.8 mph - N/A   Clear
3:53 PM 36.0 °F 28.5 °F 14.0 °F 41% 30.13 in 10.0 mi West 10.4 mph - N/A   Clear
4:53 PM 27.0 °F 18.7 °F 15.1 °F 61% 30.15 in 10.0 mi WSW 8.1 mph - N/A   Clear
5:53 PM 26.1 °F 16.8 °F 17.1 °F 69% 30.17 in 10.0 mi WSW 9.2 mph - N/A   Partly Cloudy
6:53 PM 25.0 °F 15.5 °F 17.1 °F 72% 30.20 in 10.0 mi SW 9.2 mph - N/A   Clear
7:53 PM 27.0 °F 19.5 °F 16.0 °F 63% 30.19 in 10.0 mi WSW 6.9 mph - N/A   Clear
8:53 PM 26.1 °F 16.8 °F 15.1 °F 63% 30.19 in 10.0 mi West 9.2 mph - N/A   Clear
9:53 PM 27.0 °F - 15.1 °F 61% 30.17 in 10.0 mi Calm Calm - N/A   Clear
10:53 PM 30.0 °F 23.2 °F 16.0 °F 56% 30.15 in 10.0 mi NW 6.9 mph - N/A   Clear
11:53 PM 32.0 °F 20.1 °F 16.0 °F 52% 30.13 in 10.0 mi WNW 19.6 mph 27.6 mph N/A   Clear